Vorticity
8 5 1 -1 1 6 8 6 -2 -9 -14 -16 -15 -14 -12 -12 -13 -13 -9 -3 3 8 11 11 8 5 3 3 3 3 4 6 10 11 12 11 9 8 7 7 7 6 6 6 5 4 4 3 3 3 3 3 3 3 3 3 3 3 3 3 3 3 3 2 2 2 2 2 2
11 8 5 1 0 2 6 10 8 2 -4 -10 -13 -13 -12 -9 -10 -12 -13 -11 -5 1 8 13 12 9 6 4 3 2 0 1 5 9 11 12 11 10 9 8 8 8 8 7 7 6 5 5 4 4 4 4 4 4 4 4 3 3 3 3 3 3 3 3 3 3 2 2 2
15 13 9 5 2 1 3 6 10 10 8 4 -1 -5 -7 -6 -5 -6 -8 -11 -10 -6 -1 7 11 12 10 8 6 4 2 0 2 5 9 11 11 11 10 9 9 9 9 9 8 8 7 6 6 5 5 5 4 4 4 4 3 3 3 3 3 3 3 3 3 3 3 3 3
20 17 14 10 6 3 2 2 5 8 10 11 9 5 2 -1 -2 -1 -1 -2 -5 -7 -7 -3 5 9 12 11 9 7 6 3 3 4 6 8 10 10 10 10 9 9 9 9 9 9 9 8 8 7 7 6 6 5 5 5 4 4 4 4 3 3 3 3 3 3 3 3 3
25 23 20 16 12 8 4 2 2 4 6 9 11 10 9 5 3 2 3 6 4 -1 -6 -8 -3 3 8 10 10 9 8 7 6 6 6 6 8 9 10 10 9 9 8 8 8 9 10 10 10 9 9 8 8 7 7 6 6 6 6 5 5 5 5 5 5 5 5 5 5
27 27 26 24 19 15 10 6 4 3 3 5 7 9 10 9 7 5 6 8 9 6 0 -6 -5 -2 3 8 9 10 9 9 9 8 7 6 6 7 8 9 9 8 7 7 7 8 9 10 11 11 10 10 10 9 9 9 8 8 8 7 7 7 7 7 7 7 7 7 7
25 27 28 28 27 24 20 15 11 7 5 4 5 6 7 8 8 7 6 7 11 11 7 0 -3 -2 1 6 8 10 10 10 10 10 9 7 6 7 8 8 8 8 7 6 6 7 8 9 10 11 11 11 10 10 10 9 9 9 8 8 8 8 8 8 8 8 8 8 7
23 24 26 28 29 29 27 25 21 17 13 10 8 6 6 7 7 6 5 5 9 12 12 7 2 -1 -0 3 7 9 10 10 11 10 10 8 7 7 7 8 8 8 7 7 6 6 7 7 9 9 10 10 10 10 9 9 9 8 8 8 7 7 7 7 7 7 7 7 7
19 21 22 24 26 27 28 29 28 26 23 19 16 13 10 10 9 8 6 3 6 10 13 11 5 0 -1 0 4 7 9 10 10 10 10 9 8 7 7 8 8 8 8 8 6 5 5 5 6 7 8 9 9 9 9 8 8 7 7 6 6 6 6 6 6 6 6 6 6
16 18 19 20 22 23 25 27 28 29 28 27 24 21 18 16 15 13 10 5 4 5 8 10 7 2 -2 -2 1 4 7 9 9 10 10 9 8 8 7 7 8 8 9 9 6 5 3 3 4 5 6 7 7 7 7 7 7 7 6 6 6 6 6 6 6 6 6 6 6
15 16 16 17 18 20 21 23 24 26 27 28 27 26 24 22 20 19 17 13 8 5 4 7 6 2 -2 -6 -4 -2 2 5 7 8 9 10 9 8 7 7 7 8 9 9 6 4 2 2 2 2 3 4 4 5 5 6 6 6 6 6 6 6 6 6 6 6 6 6 7
13 14 14 15 16 17 18 19 20 21 23 24 25 25 25 24 24 23 22 21 17 13 9 7 5 3 -1 -6 -10 -10 -8 -4 0 4 6 8 8 8 8 8 8 8 8 8 6 4 2 1 1 1 1 1 1 2 3 3 4 4 4 4 5 5 6 6 6 6 7 7 7
11 11 12 13 14 15 15 16 17 18 19 20 21 22 23 24 24 24 25 25 24 21 18 14 10 7 4 -1 -7 -12 -14 -14 -10 -6 -2 2 4 6 7 7 8 8 8 7 5 3 2 1 1 0 -0 -1 -1 -0 1 1 2 2 2 3 4 5 5 6 6 6 7 7 8
8 9 10 11 11 12 13 14 15 16 16 17 18 19 20 21 22 23 24 25 25 25 24 22 19 16 13 9 3 -3 -8 -13 -15 -15 -13 -9 -5 -2 1 3 4 4 5 4 2 1 -0 0 -0 -1 -1 -2 -2 -2 -0 1 2 2 2 3 4 5 5 6 6 6 7 8 8
7 8 8 8 9 10 11 12 13 14 14 15 16 17 18 18 19 21 22 23 24 25 25 26 25 23 21 18 14 10 4 -1 -7 -12 -14 -15 -13 -11 -8 -6 -4 -3 -2 -2 -4 -4 -5 -4 -3 -3 -3 -4 -4 -3 -2 0 2 3 4 4 5 6 6 7 7 8 8 8 8
8 8 8 7 7 8 9 10 11 12 13 14 15 15 16 16 17 18 19 20 21 22 23 25 26 26 25 24 22 19 16 12 7 2 -2 -6 -7 -8 -9 -9 -9 -9 -10 -10 -10 -10 -10 -9 -8 -6 -6 -5 -5 -4 -2 0 2 4 5 6 7 8 8 8 9 9 9 9 9
10 9 8 7 7 7 7 8 9 10 11 12 13 14 15 15 16 16 16 17 18 19 20 22 23 25 25 26 26 25 23 22 19 15 12 10 8 6 4 2 -1 -4 -6 -9 -10 -10 -10 -10 -9 -8 -7 -5 -4 -2 0 3 5 7 8 9 10 10 10 10 10 10 10 10 11
12 11 10 9 8 7 7 7 7 7 8 9 11 12 13 14 14 15 15 16 16 16 17 18 20 21 22 24 25 25 26 26 24 23 21 19 18 17 17 15 13 10 7 4 2 -0 -2 -2 -3 -2 -2 0 2 4 6 8 9 10 11 12 12 12 11 11 11 11 12 12 13
14 13 12 11 10 9 8 7 6 6 6 7 8 9 11 12 13 14 15 15 15 15 15 15 16 17 18 19 21 22 23 23 24 24 23 22 21 20 20 20 20 19 18 17 15 13 11 10 8 8 8 9 10 12 13 13 14 14 13 13 13 12 12 12 12 13 14 15 16
17 16 14 13 12 11 9 8 7 6 6 5 6 7 8 10 12 13 14 14 15 14 14 14 14 14 15 15 16 17 18 19 19 20 20 20 19 19 19 19 19 19 20 20 20 20 19 18 17 16 16 16 16 17 17 16 16 15 14 13 13 13 13 14 15 16 17 18 18
18 18 17 16 14 13 12 10 9 7 6 6 5 6 6 8 10 11 13 14 14 14 14 14 14 14 14 14 14 14 15 15 15 16 16 16 16 16 16 16 16 17 17 18 19 19 19 19 19 19 19 18 18 18 17 16 15 15 14 14 14 15 16 17 18 18 18 18 16
18 18 18 17 17 16 14 13 11 10 8 7 6 6 6 7 8 9 11 13 13 14 14 14 14 14 14 14 14 14 14 13 13 13 13 14 14 14 14 14 14 15 16 17 17 18 19 19 19 19 18 18 17 16 16 15 15 15 15 16 16 18 18 19 18 17 16 13 11
16 17 17 18 18 17 17 16 14 13 11 10 9 8 7 7 7 8 9 10 12 13 14 15 15 15 15 14 14 14 14 13 13 13 13 13 13 13 14 14 14 15 16 17 17 18 18 18 18 18 17 17 16 15 15 15 16 16 17 18 19 19 18 17 15 13 10 8 6
14 15 16 17 18 18 18 18 17 16 14 13 12 10 9 8 7 7 7 8 10 11 13 14 15 15 15 15 15 14 14 14 15 15 15 15 15 15 15 16 16 16 17 17 18 18 18 17 17 17 16 16 16 16 16 17 18 18 18 18 17 16 14 12 10 7 5 4 3
13 13 14 15 16 17 18 18 18 18 17 16 14 13 12 10 9 8 7 7 8 9 11 12 13 14 15 15 15 15 15 15 15 16 16 16 17 17 17 17 17 17 18 18 17 17 17 17 16 16 16 17 17 18 18 19 19 18 17 15 13 11 9 7 5 4 3 3 4
11 12 13 13 14 15 16 17 18 18 18 17 16 15 14 13 11 10 9 8 8 8 9 10 12 13 14 14 15 15 16 16 16 16 16 16 17 17 18 18 18 17 17 17 17 17 17 17 17 18 18 18 18 19 18 18 17 15 13 10 8 6 5 4 4 4 5 6 9
11 11 11 12 13 14 15 16 17 17 18 17 17 17 16 15 13 12 11 10 9 9 9 9 10 11 12 13 14 15 15 16 16 16 16 16 16 17 17 17 17 17 17 17 17 17 18 18 19 19 19 18 18 17 15 13 12 10 8 6 4 4 4 4 6 8 10 13 15
11 11 11 11 11 12 13 14 15 16 17 17 17 17 16 16 15 13 12 11 10 10 10 10 10 11 12 13 13 14 14 15 15 16 16 16 16 16 16 17 17 17 17 18 18 18 19 19 18 18 17 16 14 13 11 9 7 6 4 4 4 4 6 8 11 13 15 17 18
12 12 11 10 10 11 12 13 14 15 16 16 16 16 16 16 15 14 13 12 12 11 11 11 11 11 12 13 13 14 14 15 15 15 16 16 17 17 17 17 17 18 18 18 18 18 17 17 16 14 13 11 10 8 7 5 5 4 4 5 6 9 11 14 16 18 18 18 17
14 13 12 11 11 11 11 12 13 14 15 15 16 16 16 16 15 15 14 13 13 12 12 12 11 12 12 13 13 14 14 15 15 16 16 16 17 17 17 17 17 17 17 17 16 15 14 13 11 10 9 7 6 5 5 4 5 6 7 9 12 14 17 18 19 19 19 18 18
17 16 14 13 12 11 11 11 12 13 14 14 15 15 16 16 15 15 14 13 13 13 12 12 12 12 13 13 13 13 14 14 15 15 15 16 16 15 15 15 15 15 14 13 13 12 10 9 8 7 6 5 5 5 5 6 8 10 12 15 17 19 20 20 19 19 18 18 19
21 19 17 15 14 13 12 11 11 12 12 13 14 15 15 15 15 15 14 14 13 13 12 12 12 12 13 13 13 13 13 13 14 14 14 14 14 13 13 13 13 12 11 10 10 9 8 7 6 6 6 6 6 7 8 10 13 15 18 19 20 20 20 19 18 18 18 17 17
25 23 21 19 17 15 13 12 11 11 12 12 13 14 14 14 14 14 14 13 13 12 12 12 12 12 12 12 13 13 13 13 12 12 12 12 12 11 11 11 10 10 9 9 8 7 7 6 6 6 7 7 9 11 13 15 18 19 21 21 21 19 18 17 16 15 15 14 13
25 26 25 23 20 18 16 14 12 12 11 12 13 13 14 14 14 14 13 13 12 12 11 12 12 12 12 12 12 12 12 11 11 11 11 10 10 10 10 10 10 9 9 8 7 7 7 7 7 8 9 11 13 15 17 19 20 21 20 19 18 16 15 14 13 12 12 11 10
23 25 26 25 24 21 19 16 14 13 12 12 12 13 13 14 14 14 13 13 12 12 11 11 12 12 12 12 12 11 11 11 11 10 10 10 10 10 10 10 10 9 8 8 7 7 8 8 9 11 12 14 16 18 20 20 20 19 17 15 13 12 11 11 10 10 10 9 9
22 23 25 25 25 24 22 19 17 15 13 13 12 13 13 13 14 14 14 13 13 13 12 12 12 12 12 12 12 11 11 11 11 11 11 11 11 11 11 10 10 9 8 8 8 9 9 10 12 14 15 17 19 19 19 18 17 14 13 11 10 10 10 10 9 9 9 9 9
22 23 24 25 25 25 24 22 20 18 16 14 14 13 13 13 14 14 14 14 13 13 13 13 13 13 13 13 13 13 13 13 13 13 13 13 12 12 11 10 9 9 9 9 10 10 12 13 15 16 17 18 18 18 16 14 13 11 10 10 10 9 9 9 9 9 8 8 8
21 22 23 24 25 25 25 24 22 20 19 17 16 15 14 14 14 14 14 14 14 13 13 14 14 14 14 15 15 15 15 15 15 14 14 13 12 11 10 10 9 9 10 10 11 13 14 16 17 17 17 17 16 14 13 11 10 10 9 9 9 9 9 8 8 8 8 8 8
19 21 22 22 23 24 25 26 24 23 21 20 18 17 16 15 14 14 14 14 13 13 13 13 13 14 14 15 16 16 16 16 15 14 13 12 12 11 11 10 10 10 11 12 14 15 16 17 17 16 16 14 13 11 10 9 9 9 9 9 9 8 8 8 7 7 7 8 8
17 19 21 22 22 23 24 25 25 24 23 21 20 19 17 16 15 14 14 14 13 13 13 13 13 13 14 14 15 15 14 14 13 13 12 11 11 11 11 11 11 12 13 14 16 16 17 16 15 14 13 12 11 10 10 9 9 9 9 8 7 7 7 7 7 7 7 8 8
16 19 21 23 23 23 22 23 24 24 23 22 21 20 18 16 15 14 14 13 13 13 13 12 12 12 13 13 13 12 12 11 11 11 11 11 11 11 12 12 13 13 15 16 17 16 16 14 13 12 11 10 10 10 9 9 9 8 7 7 6 6 6 7 7 8 8 8 8
Height
5651 5652 5654 5656 5658 5660 5663 5665 5667 5669 5671 5674 5676 5678 5680 5681 5683 5684 5686 5687 5689 5690 5692 5694 5695 5697 5699 5701 5702 5703 5705 5706 5708 5709 5711 5712 5714 5715 5717 5718 5720 5721 5723 5724 5725 5726 5728 5729 5731 5732 5733 5734 5735 5736 5737 5738 5739 5740 5740 5741 5742 5743 5743 5744 5745 5745 5746 5747 5747
5648 5650 5651 5653 5655 5657 5659 5661 5664 5666 5668 5671 5673 5675 5676 5678 5680 5681 5683 5685 5686 5687 5689 5691 5692 5694 5696 5697 5699 5700 5702 5704 5705 5706 5708 5709 5711 5712 5714 5715 5717 5718 5720 5721 5722 5723 5725 5726 5727 5728 5729 5731 5732 5733 5734 5734 5735 5736 5737 5738 5739 5740 5740 5741 5741 5742 5743 5744 5744
5646 5648 5649 5651 5652 5654 5656 5658 5661 5662 5665 5667 5669 5671 5673 5675 5676 5678 5680 5681 5683 5685 5686 5688 5689 5691 5692 5694 5696 5697 5699 5701 5702 5703 5705 5706 5708 5709 5711 5712 5714 5715 5716 5718 5719 5720 5721 5722 5724 5725 5726 5727 5728 5729 5730 5731 5732 5733 5734 5735 5736 5736 5737 5738 5739 5739 5740 5741 5741
5643 5645 5647 5648 5650 5651 5653 5654 5657 5659 5661 5663 5666 5668 5669 5671 5672 5674 5676 5679 5680 5682 5683 5685 5686 5688 5690 5691 5693 5694 5696 5697 5699 5701 5702 5703 5705 5706 5708 5709 5711 5712 5713 5715 5716 5717 5718 5719 5721 5722 5723 5724 5725 5726 5727 5728 5729 5730 5731 5732 5733 5734 5735 5735 5736 5736 5737 5737 5738
5639 5641 5643 5645 5646 5648 5649 5651 5653 5656 5658 5660 5662 5664 5666 5667 5669 5671 5673 5675 5677 5678 5680 5682 5684 5685 5687 5688 5690 5691 5693 5694 5696 5697 5699 5700 5702 5703 5705 5706 5708 5709 5710 5711 5713 5714 5715 5716 5717 5719 5720 5721 5722 5723 5724 5725 5726 5727 5728 5729 5730 5731 5731 5732 5733 5733 5734 5734 5735
5635 5637 5639 5641 5643 5645 5646 5648 5650 5652 5654 5656 5659 5661 5662 5664 5666 5667 5669 5671 5673 5675 5677 5679 5681 5682 5684 5686 5687 5688 5690 5691 5693 5694 5696 5697 5699 5700 5702 5703 5705 5706 5707 5709 5710 5711 5712 5713 5715 5716 5717 5718 5719 5720 5721 5722 5723 5724 5725 5726 5727 5728 5729 5729 5730 5730 5731 5731 5731
5631 5633 5636 5638 5640 5641 5643 5645 5646 5648 5650 5652 5655 5656 5658 5660 5662 5664 5666 5667 5669 5671 5674 5676 5678 5679 5681 5682 5684 5685 5686 5688 5690 5691 5693 5694 5696 5697 5699 5700 5701 5703 5704 5706 5707 5708 5709 5711 5712 5713 5714 5715 5716 5717 5718 5719 5721 5721 5722 5723 5724 5725 5726 5726 5726 5727 5727 5727 5728
5628 5630 5631 5633 5636 5637 5639 5641 5643 5644 5646 5648 5651 5652 5655 5657 5659 5661 5662 5664 5666 5668 5670 5672 5674 5676 5678 5679 5681 5682 5683 5685 5686 5688 5690 5691 5692 5694 5695 5697 5698 5700 5701 5703 5704 5705 5706 5708 5709 5710 5711 5712 5713 5714 5715 5716 5717 5718 5719 5720 5721 5721 5722 5722 5723 5723 5724 5724 5724
5625 5626 5628 5630 5631 5633 5635 5637 5639 5641 5643 5645 5646 5648 5651 5653 5655 5657 5659 5661 5663 5665 5667 5669 5671 5673 5675 5676 5678 5679 5680 5682 5683 5685 5686 5688 5689 5691 5692 5693 5695 5696 5698 5700 5701 5702 5703 5705 5706 5707 5708 5709 5710 5711 5712 5713 5714 5715 5716 5717 5717 5718 5719 5719 5719 5720 5720 5720 5721
5621 5623 5624 5626 5628 5629 5631 5633 5635 5637 5639 5641 5642 5645 5647 5649 5651 5653 5655 5657 5659 5662 5664 5666 5668 5670 5671 5673 5675 5676 5677 5679 5680 5682 5683 5685 5686 5687 5689 5690 5692 5693 5695 5696 5698 5699 5700 5701 5702 5704 5705 5706 5707 5708 5709 5710 5711 5712 5712 5713 5714 5715 5715 5716 5716 5716 5716 5716 5717
5618 5619 5621 5622 5624 5626 5628 5630 5631 5633 5635 5636 5638 5641 5642 5644 5646 5648 5651 5653 5656 5658 5661 5662 5664 5666 5668 5670 5671 5673 5674 5676 5677 5679 5680 5682 5683 5684 5686 5687 5688 5690 5691 5693 5694 5696 5697 5698 5699 5701 5702 5703 5704 5705 5706 5706 5708 5708 5709 5710 5711 5711 5711 5712 5712 5712 5713 5713 5713
5615 5616 5618 5619 5621 5622 5624 5626 5628 5629 5631 5632 5634 5636 5638 5640 5642 5644 5646 5649 5651 5654 5656 5658 5660 5663 5664 5666 5667 5669 5671 5672 5674 5676 5677 5678 5680 5681 5682 5684 5685 5686 5688 5689 5691 5692 5693 5694 5696 5697 5698 5699 5701 5701 5702 5703 5704 5705 5706 5706 5707 5707 5708 5708 5708 5709 5709 5709 5709
5611 5613 5614 5616 5617 5619 5621 5622 5624 5626 5627 5629 5631 5632 5634 5636 5638 5640 5642 5644 5646 5648 5651 5653 5656 5658 5660 5661 5663 5665 5667 5669 5670 5672 5674 5675 5676 5678 5679 5681 5682 5683 5685 5686 5687 5689 5690 5691 5692 5694 5695 5696 5697 5698 5699 5699 5700 5701 5702 5702 5703 5703 5704 5704 5704 5705 5705 5705 5705
5608 5609 5611 5612 5614 5616 5617 5619 5621 5622 5624 5625 5627 5629 5631 5632 5634 5636 5638 5640 5641 5643 5646 5648 5651 5653 5655 5657 5659 5661 5662 5664 5666 5668 5670 5671 5673 5675 5676 5677 5679 5680 5681 5682 5684 5685 5686 5687 5689 5690 5691 5692 5693 5694 5695 5696 5696 5697 5698 5699 5699 5699 5700 5700 5700 5701 5701 5701 5701
5605 5606 5607 5609 5611 5612 5614 5616 5617 5619 5620 5622 5623 5625 5627 5629 5630 5632 5634 5636 5637 5639 5641 5644 5646 5647 5649 5651 5654 5656 5658 5660 5662 5664 5666 5667 5669 5671 5673 5674 5675 5676 5678 5679 5681 5682 5683 5684 5685 5686 5687 5689 5690 5691 5691 5692 5693 5693 5694 5695 5695 5695 5696 5696 5696 5696 5697 5697 5697
5601 5603 5604 5606 5607 5609 5611 5612 5614 5615 5617 5618 5620 5621 5623 5625 5626 5628 5630 5632 5633 5635 5637 5639 5641 5642 5645 5647 5649 5651 5653 5655 5657 5659 5661 5663 5665 5667 5669 5670 5672 5673 5674 5676 5677 5678 5679 5681 5681 5683 5684 5685 5686 5687 5688 5688 5689 5690 5690 5691 5691 5691 5691 5692 5692 5692 5692 5692 5693
5598 5600 5601 5603 5604 5606 5607 5609 5610 5612 5613 5615 5616 5618 5620 5621 5623 5625 5626 5628 5630 5631 5633 5635 5636 5638 5640 5642 5644 5646 5648 5650 5652 5654 5656 5658 5661 5662 5664 5666 5667 5669 5671 5672 5673 5674 5676 5677 5678 5679 5680 5681 5682 5683 5684 5685 5685 5686 5686 5687 5687 5687 5688 5688 5688 5688 5688 5688 5689
5596 5597 5598 5600 5601 5603 5604 5606 5607 5609 5610 5611 5613 5615 5616 5618 5619 5621 5623 5624 5626 5628 5630 5631 5633 5635 5636 5638 5640 5641 5644 5646 5648 5650 5652 5654 5656 5658 5660 5661 5663 5665 5666 5668 5669 5670 5671 5673 5674 5675 5676 5677 5678 5679 5680 5681 5681 5682 5682 5683 5683 5683 5684 5684 5684 5684 5684 5685 5685
5593 5594 5595 5597 5598 5600 5601 5603 5604 5606 5607 5608 5610 5611 5613 5615 5616 5618 5619 5621 5622 5624 5626 5627 5629 5631 5632 5634 5636 5638 5640 5641 5643 5645 5647 5649 5651 5653 5655 5656 5658 5660 5661 5663 5664 5666 5667 5668 5670 5671 5672 5673 5674 5675 5676 5676 5677 5677 5678 5678 5679 5679 5680 5680 5680 5680 5681 5681 5681
5590 5591 5592 5594 5595 5596 5598 5600 5601 5602 5604 5605 5607 5608 5610 5611 5613 5615 5616 5617 5619 5621 5622 5624 5626 5627 5629 5631 5632 5634 5636 5637 5639 5641 5643 5645 5647 5648 5650 5652 5653 5655 5656 5658 5659 5661 5662 5664 5665 5666 5667 5668 5669 5670 5671 5672 5672 5673 5674 5674 5675 5675 5676 5676 5676 5676 5677 5677 5677
5587 5588 5589 5591 5592 5593 5595 5596 5598 5599 5601 5602 5604 5606 5607 5608 5610 5611 5613 5614 5616 5617 5619 5621 5622 5624 5625 5627 5629 5630 5632 5634 5636 5637 5639 5641 5643 5644 5646 5647 5649 5651 5652 5653 5655 5656 5658 5659 5660 5661 5663 5664 5665 5666 5666 5667 5668 5669 5670 5670 5671 5671 5672 5672 5673 5673 5673 5674 5674
5585 5586 5586 5588 5589 5590 5592 5593 5595 5596 5598 5600 5601 5602 5604 5606 5607 5608 5610 5611 5612 5614 5616 5617 5619 5620 5622 5624 5625 5627 5628 5630 5632 5634 5635 5637 5639 5640 5642 5643 5645 5646 5648 5649 5651 5652 5653 5655 5656 5657 5658 5660 5661 5661 5662 5663 5664 5665 5666 5666 5667 5668 5668 5669 5669 5670 5670 5670 5671
5582 5583 5584 5585 5586 5587 5589 5590 5591 5593 5595 5596 5598 5600 5601 5603 5604 5605 5607 5608 5610 5611 5612 5614 5615 5617 5619 5620 5622 5623 5625 5627 5629 5630 5632 5633 5635 5636 5638 5640 5641 5642 5644 5645 5647 5648 5650 5651 5652 5653 5655 5656 5657 5658 5659 5660 5661 5661 5662 5663 5664 5664 5665 5665 5666 5666 5667 5667 5667
5580 5581 5581 5582 5583 5585 5586 5587 5588 5590 5591 5593 5595 5596 5598 5600 5601 5602 5604 5605 5606 5608 5609 5611 5612 5614 5616 5617 5619 5620 5622 5624 5625 5627 5628 5630 5631 5633 5634 5636 5637 5639 5640 5642 5643 5645 5646 5647 5648 5650 5651 5652 5653 5654 5655 5656 5657 5658 5659 5660 5660 5661 5661 5662 5663 5663 5664 5664 5664
5577 5578 5579 5580 5581 5582 5583 5584 5586 5587 5588 5590 5591 5593 5595 5596 5598 5600 5601 5602 5604 5605 5606 5608 5609 5611 5612 5614 5616 5617 5619 5620 5622 5623 5625 5626 5628 5630 5631 5632 5634 5636 5637 5638 5640 5641 5642 5644 5645 5646 5647 5649 5650 5651 5652 5653 5654 5655 5656 5656 5657 5658 5658 5659 5660 5660 5660 5661 5661
5575 5576 5577 5578 5578 5579 5581 5581 5583 5584 5585 5586 5588 5590 5592 5593 5595 5596 5598 5599 5601 5602 5603 5605 5606 5608 5610 5611 5612 5614 5616 5617 5619 5620 5622 5623 5625 5626 5628 5629 5631 5632 5634 5635 5637 5638 5639 5641 5642 5643 5644 5645 5646 5647 5649 5650 5651 5652 5652 5653 5654 5655 5656 5656 5656 5657 5657 5657 5657
5572 5573 5574 5575 5576 5577 5578 5579 5580 5581 5582 5584 5585 5587 5588 5590 5592 5593 5595 5596 5598 5599 5601 5602 5604 5605 5606 5608 5610 5611 5613 5614 5616 5617 5619 5620 5622 5623 5625 5626 5628 5629 5631 5632 5633 5635 5636 5637 5639 5640 5641 5642 5643 5645 5646 5647 5648 5649 5650 5650 5651 5652 5652 5653 5653 5653 5654 5654 5654
5570 5571 5572 5573 5574 5575 5575 5576 5577 5578 5580 5581 5582 5583 5585 5587 5589 5590 5592 5593 5595 5596 5598 5599 5601 5602 5604 5605 5607 5608 5610 5611 5613 5614 5616 5617 5619 5620 5622 5623 5625 5626 5627 5629 5630 5632 5633 5634 5636 5637 5638 5639 5641 5641 5643 5644 5645 5646 5646 5647 5648 5649 5649 5650 5650 5650 5651 5651 5651
5567 5568 5569 5570 5571 5572 5573 5574 5575 5576 5577 5578 5579 5581 5582 5584 5585 5587 5588 5590 5592 5593 5595 5596 5598 5599 5601 5603 5604 5605 5607 5608 5610 5611 5613 5614 5616 5617 5619 5620 5622 5623 5625 5626 5627 5629 5630 5631 5633 5634 5635 5636 5638 5639 5640 5641 5642 5643 5644 5644 5645 5645 5646 5646 5646 5647 5647 5647 5647
5564 5565 5566 5567 5568 5569 5570 5571 5572 5573 5574 5575 5576 5578 5579 5581 5582 5584 5585 5587 5589 5590 5591 5593 5595 5597 5598 5600 5601 5602 5604 5606 5607 5608 5610 5611 5613 5615 5616 5617 5619 5620 5622 5623 5625 5626 5627 5629 5630 5631 5633 5634 5635 5636 5637 5638 5639 5640 5640 5641 5641 5642 5642 5643 5643 5644 5644 5644 5644
5561 5562 5563 5565 5566 5566 5567 5568 5570 5571 5571 5573 5574 5575 5576 5578 5579 5581 5582 5584 5586 5587 5589 5590 5592 5594 5595 5597 5598 5600 5601 5603 5604 5606 5607 5609 5611 5612 5613 5615 5616 5618 5619 5621 5622 5623 5625 5626 5627 5629 5630 5631 5632 5633 5634 5635 5636 5636 5637 5638 5638 5639 5639 5640 5640 5641 5641 5641 5641
5559 5560 5561 5562 5563 5564 5565 5566 5567 5568 5569 5570 5571 5572 5574 5575 5576 5578 5580 5581 5583 5584 5586 5588 5589 5591 5592 5594 5596 5597 5599 5600 5602 5603 5605 5606 5608 5609 5611 5612 5614 5615 5616 5618 5620 5621 5622 5624 5625 5626 5627 5628 5629 5630 5631 5632 5633 5633 5634 5635 5636 5636 5636 5637 5637 5638 5638 5638 5639
5556 5557 5558 5559 5560 5561 5562 5563 5564 5565 5566 5567 5569 5570 5571 5573 5574 5576 5577 5578 5580 5581 5583 5585 5586 5588 5590 5591 5593 5594 5596 5597 5599 5601 5602 5604 5605 5607 5608 5610 5611 5612 5614 5616 5617 5618 5620 5621 5622 5623 5624 5625 5626 5627 5628 5629 5630 5631 5631 5632 5632 5633 5634 5634 5635 5635 5635 5636 5636
5553 5554 5555 5556 5557 5558 5559 5560 5561 5562 5564 5565 5566 5567 5569 5570 5571 5573 5574 5576 5577 5579 5580 5582 5584 5586 5587 5589 5590 5592 5593 5595 5596 5598 5600 5601 5603 5604 5606 5607 5609 5610 5612 5613 5614 5616 5617 5618 5619 5620 5621 5622 5623 5624 5625 5626 5627 5628 5629 5629 5630 5631 5631 5632 5632 5632 5633 5633 5633
5551 5551 5552 5553 5554 5555 5556 5557 5559 5560 5561 5562 5564 5565 5566 5567 5569 5570 5572 5573 5575 5576 5578 5579 5581 5583 5584 5586 5588 5589 5591 5592 5594 5595 5597 5598 5600 5602 5603 5605 5606 5608 5609 5611 5612 5613 5614 5616 5616 5618 5619 5620 5621 5621 5622 5623 5624 5625 5626 5627 5627 5628 5629 5629 5630 5630 5630 5631 5631
5548 5549 5550 5550 5551 5552 5553 5555 5556 5557 5559 5560 5561 5563 5564 5565 5566 5568 5569 5571 5572 5574 5575 5577 5579 5580 5582 5584 5585 5587 5588 5590 5591 5593 5595 5596 5598 5599 5601 5602 5604 5605 5606 5608 5609 5610 5611 5613 5614 5615 5616 5617 5618 5619 5620 5621 5622 5623 5624 5625 5625 5626 5626 5627 5627 5627 5628 5628 5628
5546 5546 5547 5548 5548 5550 5551 5552 5553 5555 5556 5557 5559 5560 5561 5563 5564 5566 5567 5568 5570 5571 5573 5575 5576 5578 5580 5581 5583 5584 5586 5587 5589 5591 5592 5594 5595 5597 5598 5600 5601 5603 5604 5605 5606 5608 5609 5611 5611 5613 5614 5615 5616 5617 5618 5619 5620 5621 5621 5622 5623 5623 5624 5624 5625 5625 5626 5626 5626
5544 5545 5545 5545 5546 5547 5548 5549 5551 5552 5554 5555 5556 5558 5559 5561 5562 5563 5565 5566 5568 5569 5571 5573 5574 5576 5577 5579 5581 5582 5584 5585 5587 5588 5590 5591 5593 5594 5596 5597 5599 5600 5601 5603 5604 5606 5607 5608 5609 5611 5611 5612 5614 5615 5616 5617 5617 5618 5619 5620 5621 5621 5621 5622 5622 5623 5623 5623 5624
5543 5543 5543 5543 5544 5545 5546 5547 5548 5550 5551 5552 5554 5556 5557 5559 5560 5561 5563 5564 5566 5567 5569 5571 5572 5574 5575 5577 5579 5580 5581 5583 5585 5586 5588 5589 5591 5592 5594 5595 5596 5598 5599 5601 5602 5603 5605 5606 5607 5608 5610 5611 5611 5612 5614 5615 5616 5616 5617 5618 5618 5619 5619 5620 5620 5621 5621 5621 5621
5541 5541 5541 5541 5542 5542 5543 5545 5546 5547 5549 5550 5552 5553 5555 5556 5558 5559 5561 5562 5564 5566 5567 5569 5570 5572 5573 5575 5576 5578 5580 5581 5582 5584 5586 5587 5588 5590 5591 5593 5594 5596 5597 5599 5600 5601 5603 5604 5605 5606 5607 5609 5610 5611 5611 5612 5613 5614 5615 5616 5616 5617 5617 5618 5618 5618 5619 5619 5619
5539 5539 5539 5539 5540 5540 5541 5542 5543 5545 5546 5548 5549 5551 5553 5554 5556 5557 5559 5560 5562 5563 5565 5567 5568 5570 5571 5573 5575 5576 5578 5579 5581 5582 5583 5585 5586 5588 5589 5591 5592 5594 5596 5597 5598 5600 5601 5602 5603 5605 5606 5607 5608 5609 5610 5610 5611 5612 5613 5613 5614 5615 5615 5616 5616 5616 5616 5616 5617